Weather History for K04V - April, 2014

Change the Weather History Date:

Friday, April 25, 2014

  Actual Average (KALS) Record (KALS)
Temperature  
Mean Temperature 50 °F 45 °F  
Max Temperature 68 °F 62 °F 77 °F (1949)
Min Temperature 32 °F 27 °F 11 °F (1950)
Degree Days  
Heating Degree Days 15 20  
Month to date heating degree days 598  
Since 1 July heating degree days 7904  
Cooling Degree Days 0 0  
Month to date cooling degree days 0  
Year to date cooling degree days 0  
Moisture  
Dew Point 9 °F    
Average Humidity 22    
Maximum Humidity 38    
Minimum Humidity 9    
Precipitation  
Precipitation 0.00 in 0.02 in 0.30 in (1986)
Month to date precipitation 0.49  
Year to date precipitation 1.54  
Snow  
Snow 0.00 in 0.10 in 1.40 in (1948)
Month to date snowfall 3.2  
Since 1 July snowfall 26.3  
Snow Depth -    
Sea Level Pressure  
Sea Level Pressure 29.99 in    
Wind  
Wind Speed 10 mph (West)    
Max Wind Speed 23 mph    
Max Gust Speed 29 mph    
Visibility 10 miles    
Events      
T = Trace of Precipitation, MM = Missing Value Source: NWS Daily Summary

Daily Weather History Graph

Daily Weather History Graph

Search for Another Location

Airport or City:

Trip Planner

Search our weather history database for the weather conditions in past years. The results will help you decide how hot, cold, wet, or windy it might be!

Date:

Astronomy

Apr. 25, 2014 Rise Set
Actual Time 6:15 AM MDT 7:50 PM MDT
Civil Twilight 5:47 AM MDT 8:18 PM MDT
Nautical Twilight 5:14 AM MDT 8:51 PM MDT
Astronomical Twilight 4:38 AM MDT 9:27 PM MDT
Moon 4:01 AM MDT (4/25) 4:18 PM MDT (4/25)
Length of Visible Light 14h 30m
Length of Day
13h 34m
Waning Crescent, 15% of the Moon is Illuminated
Apr 25
Waning Crescent
Apr 29
New
May 6
First Quarter
May 14
Full
May 21
Last Quarter

Hourly Weather History & Observations

Time (MDT) Temp. Windchill Dew Point Humidity Pressure Visibility Wind Dir Wind Speed Gust Speed Precip Events Conditions
12:15 AM 37.4 °F 30.3 °F 5.0 °F 26% 30.10 in 10.0 mi NNE 10.4 mph - N/A   Clear
12:35 AM 37.4 °F 28.9 °F 5.0 °F 26% 30.10 in 10.0 mi NNE 13.8 mph - N/A   Clear
12:55 AM 37.4 °F 29.3 °F 5.0 °F 26% 30.10 in 10.0 mi NNE 12.7 mph - N/A   Clear
1:15 AM 37.4 °F 29.8 °F 5.0 °F 26% 30.09 in 10.0 mi North 11.5 mph - N/A   Clear
1:35 AM 35.6 °F 28.6 °F 6.8 °F 30% 30.09 in 10.0 mi NNW 9.2 mph - N/A   Clear
1:54 AM 33.8 °F 26.4 °F 6.8 °F 32% 30.09 in 10.0 mi North 9.2 mph - N/A   Clear
2:14 AM 33.8 °F - 5.0 °F 30% 30.09 in 10.0 mi Calm Calm - N/A   Clear
2:35 AM 32.0 °F 24.8 °F 8.6 °F 38% 30.09 in 10.0 mi NNW 8.1 mph - N/A   Clear
2:55 AM 33.8 °F 27.0 °F 8.6 °F 35% 30.09 in 10.0 mi North 8.1 mph - N/A   Clear
3:15 AM 33.8 °F 24.8 °F 8.6 °F 35% 30.09 in 10.0 mi NNW 12.7 mph 17.3 mph N/A   Clear
3:35 AM 35.6 °F 28.0 °F 6.8 °F 30% 30.09 in 10.0 mi NNW 10.4 mph - N/A   Clear
3:55 AM 37.4 °F 30.8 °F 8.6 °F 30% 30.08 in 10.0 mi NNW 9.2 mph - N/A   Clear
4:15 AM 33.8 °F 25.8 °F 6.8 °F 32% 30.08 in 10.0 mi NW 10.4 mph - N/A   Clear
4:35 AM 33.8 °F 25.8 °F 8.6 °F 35% 30.08 in 10.0 mi NW 10.4 mph - N/A   Clear
4:54 AM 32.0 °F 23.6 °F 8.6 °F 38% 30.08 in 10.0 mi NNW 10.4 mph - N/A   Clear
5:15 AM 33.8 °F 25.8 °F 10.4 °F 38% 30.08 in 10.0 mi NW 10.4 mph - N/A   Clear
5:35 AM 33.8 °F 25.8 °F 8.6 °F 35% 30.08 in 10.0 mi NNW 10.4 mph - N/A   Clear
5:55 AM 33.8 °F 24.8 °F 8.6 °F 35% 30.07 in 10.0 mi NNW 12.7 mph - N/A   Clear
6:15 AM 32.0 °F 23.6 °F 8.6 °F 38% 30.08 in 10.0 mi NNW 10.4 mph - N/A   Clear
6:35 AM 32.0 °F 23.6 °F 8.6 °F 38% 30.08 in 10.0 mi NNW 10.4 mph - N/A   Clear
6:55 AM 33.8 °F 26.4 °F 8.6 °F 35% 30.09 in 10.0 mi NNW 9.2 mph - N/A   Clear
7:15 AM 35.6 °F 28.6 °F 10.4 °F 35% 30.09 in 10.0 mi NW 9.2 mph - N/A   Clear
7:35 AM 35.6 °F 28.0 °F 10.4 °F 35% 30.10 in 10.0 mi NW 10.4 mph - N/A   Clear
7:55 AM 37.4 °F 33.8 °F 8.6 °F 30% 30.10 in 10.0 mi East 4.6 mph - N/A   Clear
8:15 AM 39.2 °F - 8.6 °F 28% 30.10 in 10.0 mi Calm Calm - N/A   Clear
8:35 AM 42.8 °F - 10.4 °F 27% 30.09 in 10.0 mi Calm Calm - N/A   Clear
8:55 AM 44.6 °F - 10.4 °F 25% 30.09 in 10.0 mi Calm Calm - N/A   Clear
9:15 AM 46.4 °F - 12.2 °F 25% 30.09 in 10.0 mi Calm Calm - N/A   Clear
9:35 AM 46.4 °F 45.2 °F 12.2 °F 25% 30.08 in 10.0 mi South 3.5 mph - N/A   Clear
9:54 AM 48.2 °F - 10.4 °F 22% 30.07 in 10.0 mi SE 5.8 mph - N/A   Clear
10:15 AM 50.0 °F - 10.4 °F 20% 30.07 in 10.0 mi ESE 6.9 mph - N/A   Clear
10:34 AM 51.8 °F - 10.4 °F 19% 30.07 in 10.0 mi SSE 10.4 mph - N/A   Clear
10:55 AM 53.6 °F - 10.4 °F 18% 30.06 in 10.0 mi SSE 8.1 mph - N/A   Clear
11:15 AM 55.4 °F - 10.4 °F 17% 30.05 in 10.0 mi ESE 8.1 mph - N/A   Clear
11:35 AM 55.4 °F - 8.6 °F 15% 30.04 in 10.0 mi South 10.4 mph - N/A   Clear
11:55 AM 59.0 °F - 6.8 °F 13% 30.02 in 10.0 mi SSW 10.4 mph 17.3 mph N/A   Clear
12:15 PM 59.0 °F - 8.6 °F 14% 30.01 in 10.0 mi South 17.3 mph 23.0 mph N/A   Clear
12:34 PM 59.0 °F - 8.6 °F 14% 30.00 in 10.0 mi South 12.7 mph 19.6 mph N/A   Clear
12:55 PM 60.8 °F - 10.4 °F 14% 29.98 in 10.0 mi South 8.1 mph 19.6 mph N/A   Clear
1:15 PM 62.6 °F - 10.4 °F 13% 29.97 in 10.0 mi South 17.3 mph 25.3 mph N/A   Clear
1:35 PM 62.6 °F - 10.4 °F 13% 29.95 in 10.0 mi SSW 17.3 mph 25.3 mph N/A   Clear
1:55 PM 62.6 °F - 8.6 °F 12% 29.94 in 10.0 mi South 12.7 mph 24.2 mph N/A   Clear
2:15 PM 64.4 °F - 10.4 °F 12% 29.93 in 10.0 mi South 13.8 mph 24.2 mph N/A   Clear
2:35 PM 64.4 °F - 8.6 °F 11% 29.91 in 10.0 mi South 15.0 mph 25.3 mph N/A   Clear
2:55 PM 66.2 °F - 5.0 °F 9% 29.90 in 10.0 mi WSW 17.3 mph 25.3 mph N/A   Clear
3:15 PM 64.4 °F - 5.0 °F 10% 29.90 in 10.0 mi SW 23.0 mph 28.8 mph N/A   Clear
3:35 PM 66.2 °F - 5.0 °F 9% 29.88 in 10.0 mi SSW 20.7 mph 26.5 mph N/A   Clear
3:53 PM 66.2 °F - 6.8 °F 10% 29.88 in 10.0 mi SSW 15.0 mph 21.9 mph N/A   Clear
4:14 PM 66.2 °F - 5.0 °F 9% 29.88 in 10.0 mi WNW 19.6 mph 27.6 mph N/A   Clear
4:35 PM 68.0 °F - 6.8 °F 9% 29.88 in 10.0 mi WNW 18.4 mph 26.5 mph N/A   Clear
4:55 PM 66.2 °F - 6.8 °F 10% 29.87 in 10.0 mi West 13.8 mph 23.0 mph N/A   Clear
5:15 PM 66.2 °F - 8.6 °F 11% 29.86 in 10.0 mi West 15.0 mph 26.5 mph N/A   Clear
5:35 PM 66.2 °F - 6.8 °F 10% 29.86 in 10.0 mi West 8.1 mph 18.4 mph N/A   Clear
5:53 PM 64.4 °F - 8.6 °F 11% 29.86 in 10.0 mi WSW 10.4 mph 19.6 mph N/A   Clear
6:15 PM 64.4 °F - 8.6 °F 11% 29.86 in 10.0 mi WSW 15.0 mph 23.0 mph N/A   Clear
6:35 PM 62.6 °F - 10.4 °F 13% 29.86 in 10.0 mi West 21.9 mph 27.6 mph N/A   Clear
6:55 PM 60.8 °F - 8.6 °F 13% 29.86 in 10.0 mi WNW 15.0 mph 25.3 mph N/A   Clear
7:15 PM 60.8 °F - 10.4 °F 14% 29.87 in 10.0 mi WNW 10.4 mph - N/A   Clear
7:35 PM 59.0 °F - 10.4 °F 15% 29.87 in 10.0 mi WNW 13.8 mph 20.7 mph N/A   Clear
7:55 PM 57.2 °F - 12.2 °F 17% 29.88 in 10.0 mi WSW 9.2 mph - N/A   Clear
8:15 PM 55.4 °F - 14.0 °F 20% 29.88 in 10.0 mi SW 10.4 mph - N/A   Clear
8:34 PM 57.2 °F - 12.2 °F 17% 29.88 in 10.0 mi SW 11.5 mph - N/A   Clear
8:55 PM 53.6 °F - 14.0 °F 21% 29.88 in 10.0 mi SW 6.9 mph - N/A   Clear
9:15 PM 51.8 °F - 14.0 °F 22% 29.88 in 10.0 mi South 4.6 mph - N/A   Clear
9:35 PM 51.8 °F - 12.2 °F 21% 29.88 in 10.0 mi WSW 4.6 mph - N/A   Clear
9:54 PM 50.0 °F - 12.2 °F 22% 29.88 in 10.0 mi Calm Calm - N/A   Scattered Clouds
10:15 PM 46.4 °F 45.2 °F 10.4 °F 23% 29.88 in 10.0 mi NNE 3.5 mph - N/A   Scattered Clouds
10:35 PM 44.6 °F 42.2 °F 10.4 °F 25% 29.88 in 10.0 mi NNE 4.6 mph - N/A   Scattered Clouds
11:15 PM 42.8 °F - 14.0 °F 31% 29.88 in 10.0 mi Calm Calm - N/A   Scattered Clouds
11:35 PM 42.8 °F - 12.2 °F 29% 29.86 in 10.0 mi Calm Calm - N/A   Clear
11:55 PM 44.6 °F - 12.2 °F 27% 29.86 in 10.0 mi Calm Calm - N/A   Clear